Other Public Products
Issued by NWS Grand Forks, ND

Home | Current Version | Previous Version | Graphics & Text | Print | Product List | Glossary On
Versions: 1 2 3 4 5 6 7 8 9 10 11 12 13 14 15 16 17 18 19 20 21 22 23 24 25 26 27 28 29 30 31 32 33 34 35 36 37 38 39 40 41 42 43 44 45 46 47 48 49 50
000
FPUS83 KFGF 222031
OPUFGF
PRAIRIE TO PINES WEATHER ROUNDUP
NATIONAL WEATHER SERVICE EASTERN NORTH DAKOTA/GRAND FORKS ND
300 PM CDT FRI MAY 22 2015

 **SATELLITE DATA USED TO AUGMENT SKY COVER AT AUTOMATED STATIONS**
 *****  WEATHER ACROSS EASTERN NORTH DAKOTA  *****

CITY           SKY/WX    TMP DP  RH WIND       PRES   REMARKS
GRAND FORKS    SUNNY     75  36  24 S7        30.15S
GRAND FORKS AF SUNNY     77  38  25 SW7G16    30.15F
GRAND CITY NWS   N/A     75 N/A N/A SW10        N/A
BUXTON           N/A     77  41  27 S6          N/A
DEVILS LAKE    SUNNY     73  36  25 S14G21    30.14F
FARGO          SUNNY     74  42  31 S9        30.17F
WAHPETON ARPT  CLEAR     73  32  21 SE7       30.18S
$$

 *****  WEATHER ACROSS CENTRAL AND WESTERN NORTH DAKOTA  *****

CITY           SKY/WX    TMP DP  RH WIND       PRES   REMARKS
JAMESTOWN      SUNNY     73  37  27 S12       30.15F
BISMARCK       MOSUNNY   75  37  25 SE14      30.13S
MINOT          SUNNY     76  31  19 S14G24    30.10F
MINOT AFB      SUNNY     78  33  19 S13G22    30.09S
GARRISON         N/A     75  32  20 S12       30.11F
WILLISTON      SUNNY     75  32  20 S17G25    30.07F
DICKINSON      MOSUNNY   72  33  24 SE23G38   30.06F
HETTINGER      PTSUNNY   69  34  27 SE22G30   30.09F
$$

 *****  OTHER OBSERVATIONS NORTHEAST NORTH DAKOTA  *****

CITY           SKY/WX    TMP DP  RH WIND       PRES   REMARKS
WALHALLA       FAIR      75  37  25 S6        30.11R
LANGDON        FAIR      77  36  22 SW10G20   30.14S
CAVALIER       FAIR      77  39  25 SW13G21   30.11S
GRAFTON        FAIR      77  41  27 S13       30.13F
CANDO          FAIR      77  32  19 S15G21    30.14S
FORT TOTTEN    NOT AVBL
ROLLA            N/A     75  28  17 SW8G29    30.14S
RUGBY          NOT AVBL
 ***** THE ABOVE OBSERVATIONS ARE NON NWS ARE NOT QUALITY
        CONTROLLED AND MAY MIS-REPORT RAIN FOR SNOW...
$$

 *****  OTHER OBSERVATIONS SOUTHEAST NORTH DAKOTA *****

CITY           SKY/WX    TMP DP  RH WIND       PRES   REMARKS
COOPERSTOWN    NOT AVBL
VALLEY CITY    FAIR      73  34  23 SE13      30.17S
OAKES            N/A     73  39  29 SE7       30.16F
GWINNER        NOT AVBL
BUFFALO        NOT AVBL
WYNDMERE         N/A     75  28  17 S5          N/A
 ***** THE ABOVE OBSERVATIONS ARE NON NWS ARE NOT QUALITY
       CONTROLLED AND MAY MIS-REPORT RAIN FOR SNOW...
$$

  *****  WEATHER ACROSS NORTHERN MINNESOTA  *****

CITY           SKY/WX    TMP DP  RH WIND       PRES   REMARKS
FLAG ISLAND    SUNNY     61  46  59 S17G24    30.07F
WARROAD        SUNNY     73  45  35 SW12G18   30.12F
ROSEAU         SUNNY     75  43  31 SW15G23   30.12F
HALLOCK        SUNNY     77  37  24 SW12G21   30.12S
THF RVR FALLS  SUNNY     73  36  25 W13       30.16F
HALSTAD          N/A     75  34  22 S5          N/A
FOSSTON        SUNNY     73  34  23 W5        30.18F
BAUDETTE       SUNNY     74  36  25 SW8       30.13S
WASKISH        SUNNY     72  41  33 CALM      30.16F
CROOKSTON      SUNNY     75  36  23 SW9       30.16F
$$
  *****  WEATHER ACROSS CENTRAL AND WEST MINNESOTA  *****

CITY           SKY/WX    TMP DP  RH WIND       PRES   REMARKS
BEMIDJI        SUNNY     73  34  23 SE6       30.17S
PARK RAPIDS    SUNNY     75  32  20 VRB5      30.18F
WADENA         SUNNY     70  37  30 CALM      30.19F
DETROIT LAKES  SUNNY     72  32  23 W3        30.20S
MOORHEAD       SUNNY     72  39  30 SW3       30.18F
FERGUS FALLS   SUNNY     73  34  23 SE8       30.18F
ELBOW LAKE     FAIR      72  37  28 S13       30.19S
MORRIS MN      SUNNY     73  32  21 S6        30.19S
STAPLES        SUNNY     72  34  25 S6        30.20F
WHEATON        SUNNY     72  34  25 CALM      30.20S
$$
  *****  WEATHER ELSEWHERE ACROSS MINNESOTA  *****

CITY           SKY/WX    TMP DP  RH WIND       PRES   REMARKS
DULUTH         SUNNY     71  32  23 NW8       30.19S
INTRNTL FALLS  SUNNY     72  30  21 VRB3      30.13F
ELY            SUNNY     68  27  21 NW7       30.16S
CLOQUET        SUNNY     72  27  18 W9        30.18F
BRAINERD       SUNNY     71  35  26 VRB5      30.20F
HIBBING        SUNNY     71  31  22 VRB7      30.17F
ALEXANDRIA     SUNNY     70  34  26 SW8       30.22F
SAINT CLOUD    SUNNY     72  34  24 VRB3      30.21F
MINNEAPOLIS    MOSUNNY   72  33  24 SE7       30.21F
$$

  *****  WEATHER ACROSS SOUTH DAKOTA  *****

CITY           SKY/WX    TMP DP  RH WIND       PRES   REMARKS
SIOUX FALLS    CLOUDY    74  40  29 VRB3      30.18S
BROOKINGS      MOSUNNY   73  34  23 SE3       30.18S
WATERTOWN      SUNNY     73  34  23 VRB5      30.17F
HURON          PTSUNNY   75  37  25 SE7G18    30.15F
SISSETON         N/A     74  31  20 SE7       30.17F
ABERDEEN       PTSUNNY   77  38  24 S12       30.14F
MITCHELL       CLOUDY    73  39  29 S15       30.17S
PIERRE         PTSUNNY   71  34  25 S28G33    30.11F
MOBRIDGE       MOSUNNY   75  36  24 SE15      30.10F
RAPID CITY     CLOUDY    59  43  55 S16       30.08S
$$

  *****  SOME WEATHER IN NEARBY STATES *****

CITY           SKY/WX    TMP DP  RH WIND       PRES   REMARKS
GLASGOW MT     PTSUNNY   74  40  29 SE20G32   29.99F
GREAT FALLS MT MOSUNNY   68  40  35 NE7       29.94S
CHEYENNE WY    LGT RAIN  45  42  89 SE13      30.04S
SCOTTSBLUFF NE CLOUDY    51  32  48 SE17G24   30.06F
OMAHA NE       CLOUDY    68  39  34 S13       30.23R
DES MOINES IA  CLOUDY    77  37  23 NW5       30.21S
DAVENPORT IA   PTSUNNY   76  30  18 SW6       30.20S
CHICAGO IL     MOSUNNY   66  29  24 E9        30.24S
EAU CLAIRE WI  SUNNY     70  31  23 VRB5      30.22S
LA CROSSE WI   SUNNY     73  35  25 VRB3      30.21S
$$

  *****  SOME NATIONAL WEATHER *****

CITY           SKY/WX    TMP DP  RH WIND       PRES   REMARKS
LA GUARDIA NY  LGT RAIN  67  42  40 W16G25    29.93R
RALEIGH NC     MOSUNNY   73  44  35 VRB5      30.19F
ATLANTA GA     PTSUNNY   76  50  40 NE8       30.19F
NEW ORLEANS LA MOSUNNY   80  65  59 N7        30.15F
OKLAHOMA CITY  CLOUDY    56  53  90 E14       30.16F
ALBUQUERQUE NM MOSUNNY   70  40  33 S13       30.03F
SALT LAKE CITY CLOUDY    64  41  42 W9        29.88F
LOS ANGELES CA PTSUNNY   62  51  67 W14       30.04S
BOISE ID       MOSUNNY   68  47  46 SE5       29.86F
SEATTLE WA     PTSUNNY   61  50  67 W10       30.01S
$$

*** WEATHER ACROSS MANITOBA...SASKATCHEWAN AND ONTARIO ***
                ***ONTARIO***

CITY           SKY/WX    TMP DP  RH WIND       PRES   REMARKS
GERALDTON      SUNNY     54  19  26 NW6       30.16F
THUNDER BAY    SUNNY     61  27  27 S14       30.18F
SIOUX LOOKOUT  MOSUNNY   68  32  26 SW9       30.09F
TORONTO        MOSUNNY   55  32  41 N20G29    30.14R
BIG TROUT LK   SUNNY     59  19  21 S5        29.99F
PICKLE LAKE    MOSUNNY   61  21  21 S9        30.06F
DRYDEN         SUNNY     70  32  24 SW10G20   30.09F
KENORA         MOSUNNY   72  45  37 MISG      30.09F
$$
                *** MANITOBA***

CITY           SKY/WX    TMP DP  RH WIND       PRES   REMARKS
BRANDON        PTSUNNY   77  34  20 SW7G18    30.11R
DAUPHIN        NOT AVBL
ISLAND LAKE    MOSUNNY   72  39  30 W8        29.88F
PILOT MOUND      N/A     75  32  20 SW7         N/A
THE PAS        PTSUNNY   77  32  19 NW7       29.94F
THOMPSON       MOSUNNY   75  30  19 VRB5      29.90S
WINNIPEG       MOSUNNY   81  37  21 W10       30.07S
LYNN LAKE      SUNNY     77  30  18 N12G20    29.91F
CHURCHILL      CLOUDY    36  32  87 N20       29.97R
GILLAM         MOSUNNY   64  36  34 NW6       29.87F
$$
                ***SASKATCHEWAN***

CITY           SKY/WX    TMP DP  RH WIND       PRES   REMARKS
ESTEVAN        MOSUNNY   77  28  16 E10G22    30.08F
KINDERSLEY     SUNNY     77  27  15 SE17G26   30.02F
LLOYDMINSTER   MOSUNNY   77  25  14 S13       30.01F
PRINCE ALBERT  MOSUNNY   79  30  17 W9G20     30.01F
REGINA         MOSUNNY   75  28  17 S6        30.07S
YORKTON        MOSUNNY   79  27  14 SW10G18   30.07S


USA.gov is the U.S. government's official web portal to all federal, state and local government web resources and services.